Retour au catalogue

SL-8 R/B

ActifPO
NORAD 15752·ROCKET BODY·🇷🇺 Russia

Lancé May 30, 1985 depuis Plesetsk Cosmodrome

Loading…

Prochains Passages (prochaines 24 heures)

TLE

FraisSource: Space-Track

Époque: Sep 14, 2026, 04:16 UTC

1 15752U 85041B   26257.17819177  .00000052  00000-0  39295-4 0  9990
2 15752  82.9541 335.9701 0025354 100.0203 260.3815 13.73359967 68938

Suivez SL-8 R/B en temps réel avec AllMySat

Download on the App Store